Hourly Weather Roundup
Issued by NWS Central Illinois

Home | Current Version | Previous Version | Text Only | Print | Product List | Glossary On
Versions: 1 2 3 4 5 6 7 8 9 10 11 12 13 14 15 16 17 18 19 20 21 22 23 24 25 26 27 28 29 30 31 32 33 34 35 36 37 38 39 40 41 42 43 44 45 46 47 48 49 50
000
NZUS43 KILX 230510
HWRILX

AREA WEATHER ROUNDUP
NATIONAL WEATHER SERVICE, LINCOLN IL
1200 AM CDT THU MAR 23 2017


CITY           SKY/WX    TMP DP  RH WIND       PRES   REMARKS
BLOOMINGTON    CLEAR     29  22  75 E9        30.44S WCI  20
CHAMPAIGN      CLEAR     32  21  64 E12       30.42F WCI  23
DECATUR        CLOUDY    32  21  64 E7        30.42S WCI  26
EFFINGHAM      CLEAR     37  24  57 E5        30.43R WCI  34
FLORA          CLEAR     39  22  50 E6        30.41S WCI  35
GALESBURG      CLOUDY    35  23  61 E10         N/A  WCI  27
JACKSONVILLE   CLOUDY    36  20  53 E12       30.38F WCI  27
LACON          CLOUDY    31  24  74 E6        30.43S WCI  26
LAWRENCEVILLE  CLEAR     35  20  54 E7        30.42F WCI  29
LITCHFIELD     CLOUDY    36  21  54 E7        30.38F WCI  31
$$


CITY           SKY/WX    TMP DP  RH WIND       PRES   REMARKS
LINCOLN        CLOUDY    36  24  60 E10       30.42S WCI  29
MACOMB         CLOUDY    36  22  56 E15       30.39F WCI  27
MATTOON        CLOUDY    34  21  59 E8        30.40S WCI  27
MT CARMEL AP   CLEAR     37  19  48 E10       30.41F WCI  30
OLNEY-NOBLE AP CLEAR     36  23  60 E9        30.41F WCI  29
PARIS          CLEAR     32  24  72 E8        30.44F WCI  25
PEORIA         CLOUDY    35  21  56 SE8       30.41F WCI  29
PONTIAC        CLEAR     30  26  85 E8        30.45F WCI  23
RANTOUL        CLEAR     32  26  76 E8        30.44S WCI  25
SPRINGFIELD    PTCLDY    39  21  48 E10       30.41S WCI  32
TAYLORVILLE    CLOUDY    36  21  55 E10       30.40F WCI  28
$$

...REGIONAL REPORTS...


CITY           SKY/WX    TMP DP  RH WIND       PRES   REMARKS
CHICAGO O`HARE PTCLDY    31  20  63 NE3       30.48R
KANKAKEE       CLEAR     26  22  84 CALM      30.47S
MOLINE         CLOUDY    35  20  54 SE9       30.39F WCI  28
MOUNT STERLING PTCLDY    36  19  49 E10       30.34F WCI  28
MOUNT VERNON   CLOUDY    37  21  52 NE7       30.40R WCI  32
PITTSFIELD     PTCLDY    39  18  41 E9        30.35F WCI  33
QUINCY         PTCLDY    40  16  37 SE15      30.34F WCI  32
ROCKFORD       CLOUDY    30  18  60 E9        30.46F WCI  22
$$


CITY           SKY/WX    TMP DP  RH WIND       PRES   REMARKS
BURLINGTON     CLOUDY    37  22  54 SE13      30.36F WCI  29
CEDAR RAPIDS   CLOUDY    35  22  58 SE13      30.33S WCI  26
DES MOINES     CLOUDY    42  18  37 SE14      30.27R WCI  35
KIRKSVILLE     CLOUDY    42  13  30 SE14      30.28F WCI  35
OTTUMWA        CLOUDY    39  15  37 SE17      30.28F WCI  30
ST LOUIS       MOCLDY    45  20  36 E13       30.35F
$$


CITY           SKY/WX    TMP DP  RH WIND       PRES   REMARKS
TERRE HAUTE    CLOUDY    32  21  64 E8        30.44S WCI  25
EVANSVILLE     CLEAR     39  21  48 E8        30.41S WCI  33
INDIANAPOLIS   CLOUDY    32  20  61 E12       30.45F WCI  23
LAFAYETTE      CLEAR     28  20  71 E8        30.45F WCI  20
MADISON        CLEAR     26  19  74 SE10      30.42F WCI  16
MILWAUKEE      CLEAR     26  17  68 CALM      30.49R
$$





USA.gov is the U.S. government's official web portal to all federal, state and local government web resources and services.